Date String (YYYY-MM-DD hh:mm:ss) UTC,Instrument flags,absolute air pressure of the measurement (hPa),sample flow rate (lpm),inlet stack bypass flow (lpm),air temperature of the measurement (°C),ambient temperature measured by the external sensor (°C),aerosol sample conditioner tube jacket temperature (°C),OPC LED temperature (°C),internal box temperature (°C),relative humidity of the measurement (%),span deviation,mass concentration of particles derived from Lorenz-Mie calculation of OPC scattering (μg/m³),mass concentration of particles derived from Lorenz-Mie calculation of OPC scattering (μg/m³),mass concentration of particles derived from Lorenz-Mie calculation of OPC scattering (μg/m³)
DateTimeUTC,F1_M11,P_M11,Q1_M11,Q2_M11,T1_M11,T2_M11,T3_M11,T4_M11,T5_M11,U1_M11,ZSPAN_M11,X0_M11,X2_M11,X1_M11
2024-03-12 06:00:00,SystemResetWarning,0824.5,5.01,000.00,022.0,021.0,000.0,030.6,023.8,11.8,0000.0,0013.44,0003.55,0001.45
2024-03-12 06:01:00,SystemResetWarning,0824.4,5.01,000.00,022.0,021.1,000.0,030.6,023.8,11.8,0000.0,0013.54,0003.55,0001.45
2024-03-12 06:02:00,SystemResetWarning,0824.5,5.00,000.00,022.0,021.1,000.0,030.6,023.8,11.9,0000.0,0014.02,0003.58,0001.44
2024-03-12 06:03:00,SystemResetWarning,0824.5,4.99,000.00,022.0,021.1,000.0,030.6,023.8,11.8,0000.0,0013.79,0003.56,0001.44
2024-03-12 06:04:00,SystemResetWarning,0824.5,5.00,000.00,022.0,021.0,000.0,030.6,023.8,11.9,0000.0,0012.90,0003.59,0001.44
2024-03-12 06:05:00,SystemResetWarning,0824.4,4.99,000.00,022.0,021.0,000.0,030.6,023.7,11.9,0000.0,0012.86,0003.55,0001.44
2024-03-12 06:06:00,SystemResetWarning,0824.4,5.00,000.00,021.9,021.0,000.0,030.6,023.7,11.7,0000.0,0012.64,0003.54,0001.43
2024-03-12 06:07:00,SystemResetWarning,0824.5,5.00,000.00,021.9,021.0,000.0,030.6,023.8,11.9,0000.0,0012.03,0003.47,0001.42
2024-03-12 06:08:00,SystemResetWarning,0824.5,5.01,000.00,021.9,021.0,000.0,030.5,023.7,11.8,0000.0,0010.97,0003.38,0001.40
2024-03-12 06:09:00,SystemResetWarning,0824.4,5.01,000.00,021.9,021.0,000.0,030.5,023.7,12.0,0000.0,0010.87,0003.39,0001.39
2024-03-12 06:10:00,SystemResetWarning,0824.5,4.99,000.00,021.9,021.0,000.0,030.5,023.7,12.0,0000.0,0011.08,0003.40,0001.36
2024-03-12 06:11:00,SystemResetWarning,0824.6,4.99,000.00,021.9,020.9,000.0,030.5,023.7,12.0,0000.0,0010.64,0003.44,0001.36
2024-03-12 06:12:00,SystemResetWarning,0824.6,5.01,000.00,021.9,020.9,000.0,030.5,023.7,12.0,0000.0,0010.03,0003.43,0001.37
2024-03-12 06:13:00,SystemResetWarning,0824.6,5.01,000.00,021.9,020.9,000.0,030.5,023.6,12.1,0000.0,0009.57,0003.37,0001.37
2024-03-12 06:14:00,SystemResetWarning,0824.5,5.01,000.00,021.9,020.9,000.0,030.5,023.6,12.0,0000.0,0009.31,0003.36,0001.36
2024-03-12 06:15:00,SystemResetWarning,0824.5,5.00,000.00,021.9,020.9,000.0,030.5,023.6,12.1,0000.0,0009.26,0003.36,0001.37
2024-03-12 06:16:00,SystemResetWarning,0824.5,4.99,000.00,021.8,020.9,000.0,030.5,023.6,12.0,0000.0,0009.46,0003.39,0001.34
2024-03-12 06:17:00,SystemResetWarning,0824.5,5.00,000.00,021.8,020.9,000.0,030.5,023.6,12.0,0000.0,0009.46,0003.39,0001.32
2024-03-12 06:18:00,SystemResetWarning,0824.5,5.00,000.00,021.8,020.9,000.0,030.5,023.6,12.1,0000.0,0009.37,0003.40,0001.32
2024-03-12 06:19:00,SystemResetWarning,0824.5,5.00,000.00,021.8,020.9,000.0,030.4,023.6,12.1,0000.0,0009.59,0003.45,0001.31
2024-03-12 06:20:00,SystemResetWarning,0824.5,5.01,000.00,021.8,020.9,000.0,030.4,023.6,12.1,0000.0,0009.79,0003.49,0001.31
2024-03-12 06:21:00,SystemResetWarning,0824.5,5.01,000.00,021.8,020.9,000.0,030.4,023.6,12.1,0000.0,0010.20,0003.48,0001.31
2024-03-12 06:22:00,SystemResetWarning,0824.4,5.00,000.00,021.8,020.9,000.0,030.4,023.6,12.2,0000.0,0011.01,0003.53,0001.32
2024-03-12 06:23:00,SystemResetWarning,0824.4,5.00,000.00,021.8,020.9,000.0,030.4,023.6,12.3,0000.0,0010.94,0003.53,0001.32
2024-03-12 06:24:00,SystemResetWarning,0824.4,4.99,000.00,021.8,020.9,000.0,030.4,023.6,12.2,0000.0,0010.84,0003.52,0001.32
2024-03-12 06:25:00,SystemResetWarning,0824.5,4.99,000.00,021.8,020.9,000.0,030.4,023.6,12.3,0000.0,0010.96,0003.51,0001.32
2024-03-12 06:26:00,SystemResetWarning,0824.4,5.00,000.00,021.8,020.9,000.0,030.4,023.6,12.3,0000.0,0011.15,0003.50,0001.30
2024-03-12 06:27:00,SystemResetWarning,0824.4,5.00,000.00,021.8,021.0,000.0,030.4,023.6,12.2,0000.0,0010.67,0003.45,0001.32
2024-03-12 06:28:00,SystemResetWarning,0824.4,5.01,000.00,021.8,021.0,000.0,030.4,023.6,12.2,0000.0,0010.66,0003.48,0001.35
2024-03-12 06:29:00,SystemResetWarning,0824.4,5.01,000.00,021.8,021.0,000.0,030.4,023.6,12.2,0000.0,0010.61,0003.47,0001.34
2024-03-12 06:30:00,SystemResetWarning,0824.5,5.01,000.00,021.8,021.0,000.0,030.4,023.6,12.3,0000.0,0010.60,0003.46,0001.36
2024-03-12 06:31:00,SystemResetWarning,0824.5,5.00,000.00,021.8,020.9,000.0,030.4,023.6,12.3,0000.0,0010.05,0003.39,0001.37
2024-03-12 06:32:00,SystemResetWarning,0824.5,5.00,000.00,021.8,020.9,000.0,030.4,023.6,12.3,0000.0,0009.41,0003.42,0001.39
2024-03-12 06:33:00,SystemResetWarning,0824.5,5.00,000.00,021.8,020.9,000.0,030.4,023.6,12.3,0000.0,0008.65,0003.38,0001.38
2024-03-12 06:34:00,SystemResetWarning,0824.5,5.00,000.00,021.8,021.0,000.0,030.4,023.6,12.3,0000.0,0009.10,0003.41,0001.38
2024-03-12 06:35:00,SystemResetWarning,0824.5,5.00,000.00,021.8,021.0,000.0,030.4,023.6,12.4,0000.0,0009.35,0003.43,0001.40
2024-03-12 06:36:00,SystemResetWarning,0824.6,5.00,000.00,021.8,021.0,000.0,030.4,023.6,12.3,0000.0,0009.47,0003.48,0001.41
2024-03-12 06:37:00,SystemResetWarning,0824.4,5.00,000.00,021.8,021.0,000.0,030.4,023.6,12.3,0000.0,0009.28,0003.48,0001.43
2024-03-12 06:38:00,SystemResetWarning,0824.4,5.01,000.00,021.8,021.0,000.0,030.4,023.6,12.4,0000.0,0009.63,0003.51,0001.44
2024-03-12 06:39:00,SystemResetWarning,0824.4,5.00,000.00,021.8,021.0,000.0,030.4,023.6,12.5,0000.0,0009.71,0003.50,0001.44
2024-03-12 06:40:00,SystemResetWarning,0824.4,5.00,000.00,021.8,021.0,000.0,030.4,023.6,12.6,0000.0,0009.97,0003.52,0001.45
2024-03-12 06:41:00,SystemResetWarning,0824.4,4.99,000.00,021.8,020.9,000.0,030.4,023.6,12.6,0000.0,0009.89,0003.53,0001.46
2024-03-12 06:42:00,SystemResetWarning,0824.4,5.01,000.00,021.8,020.9,000.0,030.4,023.6,12.7,0000.0,0010.08,0003.54,0001.47
2024-03-12 06:43:00,SystemResetWarning,0824.4,5.01,000.00,021.8,020.9,000.0,030.4,023.6,12.7,0000.0,0010.76,0003.50,0001.47
2024-03-12 06:44:00,SystemResetWarning,0824.4,4.98,000.00,021.8,020.9,000.0,030.4,023.6,12.7,0000.0,0010.87,0003.51,0001.49
2024-03-12 06:45:00,SystemResetWarning,0824.4,5.00,000.00,021.8,021.0,000.0,030.3,023.6,12.7,0000.0,0010.53,0003.51,0001.49
2024-03-12 06:46:00,SystemResetWarning,0824.3,5.00,000.00,021.8,021.0,000.0,030.3,023.6,12.6,0000.0,0010.23,0003.48,0001.46
2024-03-12 06:47:00,SystemResetWarning,0824.4,5.00,000.00,021.8,021.0,000.0,030.3,023.6,12.7,0000.0,0010.04,0003.43,0001.44
2024-03-12 06:48:00,SystemResetWarning,0824.2,5.00,000.00,021.8,021.0,000.0,030.3,023.6,12.6,0000.0,0009.73,0003.37,0001.43
2024-03-12 06:49:00,SystemResetWarning,0824.2,5.01,000.00,021.8,021.0,000.0,030.3,023.6,12.4,0000.0,0009.31,0003.32,0001.42
2024-03-12 06:50:00,SystemResetWarning,0824.1,5.00,000.00,021.8,021.0,000.0,030.3,023.6,12.4,0000.0,0009.40,0003.30,0001.42
2024-03-12 06:51:00,SystemResetWarning,0824.1,5.00,000.00,021.8,021.0,000.0,030.3,023.6,12.5,0000.0,0009.61,0003.30,0001.40
2024-03-12 06:52:00,SystemResetWarning,0824.0,4.98,000.00,021.8,021.0,000.0,030.3,023.6,12.4,0000.0,0009.89,0003.25,0001.38
2024-03-12 06:53:00,SystemResetWarning,0824.1,5.00,000.00,021.8,021.0,000.0,030.3,023.6,12.2,0000.0,0009.92,0003.25,0001.37
2024-03-12 06:54:00,SystemResetWarning,0824.1,5.00,000.00,021.8,020.9,000.0,030.3,023.6,12.4,0000.0,0009.39,0003.28,0001.39
2024-03-12 06:55:00,SystemResetWarning,0824.2,5.00,000.00,021.7,020.8,000.0,030.3,023.5,12.6,0000.0,0009.42,0003.27,0001.36
2024-03-12 06:56:00,SystemResetWarning,0824.2,5.00,000.00,021.7,020.8,000.0,030.3,023.5,12.6,0000.0,0010.07,0003.27,0001.36
2024-03-12 06:57:00,SystemResetWarning,0824.2,5.00,000.00,021.7,020.8,000.0,030.3,023.5,12.5,0000.0,0010.28,0003.31,0001.37
2024-03-12 06:58:00,SystemResetWarning,0824.3,5.00,000.00,021.7,020.8,000.0,030.3,023.5,12.5,0000.0,0010.26,0003.32,0001.40
2024-03-12 06:59:00,SystemResetWarning,0824.2,5.01,000.00,021.7,020.8,000.0,030.3,023.5,12.5,0000.0,0010.49,0003.41,0001.42
